KE7JL Weather Reports


Display with metric or nautical units.
time (UTC)temp
F
wind
direction
speed
MPH
gust
MPH
rain 1hr
in
rain 24hr
in
rain mn
in
humidity
%
barometer
mb
20260505060404 62 196 0.0 0.0 0.00 0.00 0.00 83 1010.3
20260505053328 63 198 0.0 0.0 0.00 0.00 0.00 82 1010.0
20260505050409 65 158 0.0 0.0 0.00 0.00 0.00 78 1009.7
20260505040402 68 180 0.0 0.0 0.00 0.00 0.00 75 1008.9
20260505033345 71 182 0.0 0.0 0.00 0.00 0.00 66 1008.4
20260505030356 71 189 0.0 0.0 0.00 0.00 0.00 70 1008.0
20260505023329 71 207 0.0 0.0 0.00 0.00 0.00 72 1007.6
20260505020406 75 185 0.0 0.0 0.00 0.00 0.00 57 1007.6
20260505013328 76 182 0.0 0.0 0.00 0.00 0.00 50 1007.7
20260505010402 77 179 0.0 0.0 0.00 0.00 0.00 47 1007.8
20260505003343 78 184 0.0 0.0 0.00 0.00 0.00 41 1007.8
20260505000354 78 189 0.0 0.0 0.00 0.00 0.00 41 1008.0
20260504233345 78 186 0.0 0.0 0.00 0.00 0.00 38 1008.1
20260504230405 77 184 0.0 0.0 0.00 0.00 0.00 40 1008.2
20260504223350 76 187 0.0 0.0 0.00 0.00 0.00 45 1008.5
20260504220347 75 188 0.0 0.0 0.00 0.00 0.00 47 1009.0
20260504213335 74 185 0.0 0.0 0.00 0.00 0.00 52 1009.1
20260504210426 74 184 0.0 0.0 0.00 0.00 0.00 57 1009.2
20260504203342 71 189 0.0 0.0 0.00 0.00 0.00 64 1009.4
20260504200418 72 189 0.0 0.0 0.00 0.00 0.00 55 1009.5
20260504193344 71 189 0.0 0.0 0.00 0.00 0.00 54 1009.5
20260504190357 70 189 0.0 0.0 0.00 0.00 0.00 59 1009.8
20260504183339 69 189 0.0 0.0 0.00 0.00 0.00 61 1009.9
20260504180357 67 192 0.0 0.0 0.00 0.00 0.00 65 1009.9
20260504173338 64 10 0.0 0.0 0.00 0.00 0.00 78 1010.0
20260504170352 61 10 0.0 0.0 0.00 0.00 0.00 82 1010.1
20260504160352 58 10 0.0 0.0 0.00 0.00 0.00 88 1009.9
20260504150350 57 10 0.0 0.0 0.00 0.00 0.00 92 1009.5
20260504140405 53 10 0.0 0.0 0.00 0.00 0.00 93 1009.2
20260504130349 52 10 0.0 0.0 0.00 0.00 0.00 92 1008.6
20260504110407 54 10 0.0 0.0 0.00 0.00 0.00 89 1008.5
20260504100349 55 10 0.0 0.0 0.00 0.00 0.00 86 1008.4
20260504080407 57 10 0.0 0.0 0.00 0.00 0.00 82 1008.3
20260504070349 60 10 0.0 0.0 0.00 0.00 0.00 76 1008.2